カタログに戻る

COSMOS 2524

運用中ナビゲーションLEO
NORAD 43032·PAYLOAD·🇷🇺 Russia

打ち上げ Dec 2, 2017 から Plesetsk Cosmodrome

Loading…

次のパス (今後24時間)

TLE

最新Source: Space-Track

元期: Sep 14, 2026, 22:08 UTC

1 43032U 17076A   26257.92247845  .00000128  00000-0  14490-3 0  9998
2 43032  67.1490 334.0941 0002163 294.9118  65.1742 13.97437422448149

AllMySatでCOSMOS 2524をリアルタイム追跡

Download on the App Store